Time,TemperatureF,DewpointF,PressureIn,WindDirection,WindDirectionDegrees,WindSpeedMPH,WindSpeedGustMPH,Humidity,HourlyPrecipIn,Conditions,Clouds,dailyrainin,SoftwareType,DateUTC
2013-07-30 00:00:00,79.2,76.3,30.05,ESE,105,0.0,0.0,91,0.00,,---,0.01,VWS V14.01,2013-07-30 04:00:00,
2013-07-30 00:01:00,79.2,76.3,30.05,ESE,105,0.0,0.0,91,0.00,,---,0.00,VWS V14.01,2013-07-30 04:01:00,
2013-07-30 00:02:00,79.2,76.3,30.05,ESE,105,0.0,0.0,91,0.00,,---,0.00,VWS V14.01,2013-07-30 04:02:00,
2013-07-30 00:07:00,79.3,76.4,30.05,ESE,105,0.0,0.0,91,0.00,,---,0.00,VWS V14.01,2013-07-30 04:07:00,
2013-07-30 00:12:00,79.4,76.6,30.05,ESE,105,0.0,1.0,91,0.00,,---,0.00,VWS V14.01,2013-07-30 04:12:00,
2013-07-30 00:17:00,79.5,76.7,30.05,ESE,105,0.0,1.0,91,0.00,,---,0.00,VWS V14.01,2013-07-30 04:17:00,
2013-07-30 00:22:00,79.6,76.8,30.05,ESE,105,0.0,2.0,91,0.00,,---,0.00,VWS V14.01,2013-07-30 04:22:00,
2013-07-30 00:28:00,79.6,76.8,30.05,ESE,105,0.0,2.0,91,0.00,,---,0.00,VWS V14.01,2013-07-30 04:28:00,
2013-07-30 00:30:00,79.6,76.8,30.05,ESE,105,0.0,2.0,91,0.00,,---,0.00,VWS V14.01,2013-07-30 04:30:00,
2013-07-30 00:32:00,79.6,76.8,30.06,ESE,105,0.0,0.0,91,0.00,,---,0.00,VWS V14.01,2013-07-30 04:32:00,
2013-07-30 00:37:00,79.7,76.8,30.05,ESE,105,0.0,0.0,91,0.00,,---,0.00,VWS V14.01,2013-07-30 04:37:00,
2013-07-30 00:42:00,79.6,76.8,30.06,ESE,105,0.0,0.0,91,0.00,,---,0.00,VWS V14.01,2013-07-30 04:42:00,
2013-07-30 00:47:00,79.6,76.8,30.06,ESE,105,0.0,0.0,91,0.00,,---,0.00,VWS V14.01,2013-07-30 04:47:00,
2013-07-30 00:52:00,79.6,76.8,30.05,ESE,105,0.0,0.0,91,0.00,,---,0.00,VWS V14.01,2013-07-30 04:52:00,
2013-07-30 00:57:00,79.5,76.7,30.05,ESE,105,0.0,0.0,91,0.00,,---,0.00,VWS V14.01,2013-07-30 04:57:00,
2013-07-30 01:00:00,79.4,76.6,30.05,ESE,105,0.0,0.0,91,0.00,,---,0.00,VWS V14.01,2013-07-30 05:00:00,
2013-07-30 01:02:00,79.4,76.6,30.05,ESE,105,0.0,0.0,91,0.00,,---,0.00,VWS V14.01,2013-07-30 05:02:00,
2013-07-30 01:07:00,79.3,76.4,30.05,ESE,105,0.0,0.0,91,0.00,,---,0.00,VWS V14.01,2013-07-30 05:07:00,
2013-07-30 01:12:00,79.2,76.7,30.05,ESE,105,0.0,0.0,92,0.00,,---,0.00,VWS V14.01,2013-07-30 05:12:00,
2013-07-30 01:17:00,79.2,76.7,30.05,ESE,105,0.0,2.0,92,0.00,,---,0.00,VWS V14.01,2013-07-30 05:17:00,
2013-07-30 01:22:00,79.4,76.9,30.05,ESE,105,0.0,2.0,92,0.00,,---,0.00,VWS V14.01,2013-07-30 05:22:00,
2013-07-30 01:27:00,79.5,77.0,30.05,ESE,105,0.0,2.0,92,0.00,,---,0.00,VWS V14.01,2013-07-30 05:27:00,
2013-07-30 01:30:00,79.5,77.0,30.05,ESE,105,0.0,2.0,92,0.00,,---,0.00,VWS V14.01,2013-07-30 05:30:00,
2013-07-30 01:32:00,79.6,77.1,30.04,ESE,105,0.0,1.0,92,0.00,,---,0.00,VWS V14.01,2013-07-30 05:32:00,
2013-07-30 01:37:00,79.6,76.8,30.04,ESE,105,0.0,1.0,91,0.00,,---,0.00,VWS V14.01,2013-07-30 05:37:00,
2013-07-30 01:42:00,79.7,76.8,30.04,ESE,105,0.0,1.0,91,0.00,,---,0.00,VWS V14.01,2013-07-30 05:42:00,
2013-07-30 01:47:00,79.7,76.8,30.04,ESE,105,0.0,1.0,91,0.00,,---,0.00,VWS V14.01,2013-07-30 05:47:00,
2013-07-30 01:52:00,79.7,76.8,30.04,ESE,105,0.0,1.0,91,0.00,,---,0.00,VWS V14.01,2013-07-30 05:52:00,
2013-07-30 01:57:00,79.8,76.6,30.04,ESE,105,0.0,1.0,90,0.00,,---,0.00,VWS V14.01,2013-07-30 05:57:00,
2013-07-30 02:00:00,79.7,76.5,30.04,ESE,105,0.0,1.0,90,0.00,,---,0.00,VWS V14.01,2013-07-30 06:00:00,
2013-07-30 02:02:00,79.7,76.5,30.04,ESE,105,0.0,0.0,90,0.00,,---,0.00,VWS V14.01,2013-07-30 06:02:00,
2013-07-30 02:07:00,79.7,76.5,30.04,ESE,105,0.0,0.0,90,0.00,,---,0.00,VWS V14.01,2013-07-30 06:07:00,
2013-07-30 02:12:00,79.6,76.4,30.04,ESE,105,0.0,0.0,90,0.00,,---,0.00,VWS V14.01,2013-07-30 06:12:00,
2013-07-30 02:17:00,79.6,76.4,30.04,ESE,105,0.0,0.0,90,0.00,,---,0.00,VWS V14.01,2013-07-30 06:17:00,
2013-07-30 02:22:00,79.5,76.7,30.03,ESE,105,0.0,0.0,91,0.00,,---,0.00,VWS V14.01,2013-07-30 06:22:00,
2013-07-30 02:27:00,79.4,76.6,30.03,ESE,105,0.0,0.0,91,0.00,,---,0.00,VWS V14.01,2013-07-30 06:27:00,
2013-07-30 02:30:00,79.4,76.6,30.03,ESE,105,0.0,0.0,91,0.00,,---,0.00,VWS V14.01,2013-07-30 06:30:00,
2013-07-30 02:32:00,79.3,76.4,30.03,ESE,105,0.0,0.0,91,0.00,,---,0.00,VWS V14.01,2013-07-30 06:32:00,
2013-07-30 02:37:00,79.3,76.4,30.03,ESE,105,0.0,0.0,91,0.00,,---,0.00,VWS V14.01,2013-07-30 06:37:00,
2013-07-30 02:42:00,79.1,76.2,30.03,ESE,105,0.0,0.0,91,0.00,,---,0.00,VWS V14.01,2013-07-30 06:42:00,
2013-07-30 02:47:00,78.9,76.4,30.03,ESE,105,0.0,0.0,92,0.00,,---,0.00,VWS V14.01,2013-07-30 06:47:00,
2013-07-30 02:52:00,78.7,76.2,30.03,ESE,105,0.0,0.0,92,0.00,,---,0.00,VWS V14.01,2013-07-30 06:52:00,
2013-07-30 02:57:00,78.6,76.1,30.03,ESE,105,0.0,0.0,92,0.00,,---,0.00,VWS V14.01,2013-07-30 06:57:00,
2013-07-30 03:00:00,78.5,76.0,30.03,ESE,105,0.0,0.0,92,0.00,,---,0.00,VWS V14.01,2013-07-30 07:00:00,
2013-07-30 03:02:00,78.5,76.0,30.03,ESE,105,0.0,0.0,92,0.00,,---,0.00,VWS V14.01,2013-07-30 07:02:00,
2013-07-30 03:07:00,78.4,76.2,30.03,ESE,105,0.0,0.0,93,0.00,,---,0.00,VWS V14.01,2013-07-30 07:07:00,
2013-07-30 03:12:00,78.2,76.0,30.03,ESE,105,0.0,0.0,93,0.00,,---,0.00,VWS V14.01,2013-07-30 07:12:00,
2013-07-30 03:17:00,78.2,76.0,30.03,ESE,105,0.0,0.0,93,0.00,,---,0.00,VWS V14.01,2013-07-30 07:17:00,
2013-07-30 03:22:00,78.1,75.9,30.02,ESE,105,0.0,0.0,93,0.00,,---,0.00,VWS V14.01,2013-07-30 07:22:00,
2013-07-30 03:27:00,78.0,75.8,30.02,ESE,105,0.0,0.0,93,0.00,,---,0.00,VWS V14.01,2013-07-30 07:27:00,
2013-07-30 03:30:00,78.0,75.8,30.02,ESE,105,0.0,0.0,93,0.00,,---,0.00,VWS V14.01,2013-07-30 07:30:00,
2013-07-30 03:32:00,77.9,75.7,30.02,ESE,105,0.0,0.0,93,0.00,,---,0.00,VWS V14.01,2013-07-30 07:32:00,
2013-07-30 03:37:00,77.8,75.6,30.02,ESE,105,0.0,0.0,93,0.00,,---,0.00,VWS V14.01,2013-07-30 07:37:00,
2013-07-30 03:42:00,77.8,75.9,30.01,ESE,105,0.0,0.0,94,0.00,,---,0.00,VWS V14.01,2013-07-30 07:42:00,
2013-07-30 03:47:00,77.8,75.9,30.02,ESE,105,0.0,0.0,94,0.00,,---,0.00,VWS V14.01,2013-07-30 07:47:00,
2013-07-30 03:52:00,77.8,75.9,30.02,ESE,105,0.0,0.0,94,0.00,,---,0.00,VWS V14.01,2013-07-30 07:52:00,
2013-07-30 03:57:00,78.0,76.1,30.02,East,84,0.0,4.0,94,0.00,,---,0.00,VWS V14.01,2013-07-30 07:57:00,
2013-07-30 04:00:00,78.1,76.2,30.02,ESE,114,1.0,4.0,94,0.00,,---,0.00,VWS V14.01,2013-07-30 08:00:00,
2013-07-30 04:02:00,78.2,76.3,30.02,ESE,114,0.0,2.0,94,0.00,,---,0.00,VWS V14.01,2013-07-30 08:02:00,
2013-07-30 04:07:00,78.5,76.3,30.01,ESE,114,0.0,2.0,93,0.00,,---,0.00,VWS V14.01,2013-07-30 08:07:00,
2013-07-30 04:12:00,78.6,75.8,30.02,ESE,114,0.0,2.0,91,0.00,,---,0.00,VWS V14.01,2013-07-30 08:12:00,
2013-07-30 04:17:00,78.7,75.2,30.02,ESE,114,0.0,2.0,89,0.00,,---,0.00,VWS V14.01,2013-07-30 08:17:00,
2013-07-30 04:22:00,78.7,74.8,30.02,ESE,114,0.0,2.0,88,0.00,,---,0.00,VWS V14.01,2013-07-30 08:22:00,
2013-07-30 04:27:00,78.7,74.8,30.01,ESE,114,0.0,2.0,88,0.00,,---,0.00,VWS V14.01,2013-07-30 08:27:00,
2013-07-30 04:30:00,78.7,74.8,30.01,ESE,114,0.0,2.0,88,0.00,,---,0.00,VWS V14.01,2013-07-30 08:30:00,
2013-07-30 04:32:00,78.7,74.8,30.02,ESE,114,0.0,0.0,88,0.00,,---,0.00,VWS V14.01,2013-07-30 08:32:00,
2013-07-30 04:37:00,78.6,75.1,30.01,ESE,114,0.0,0.0,89,0.00,,---,0.00,VWS V14.01,2013-07-30 08:37:00,
2013-07-30 04:42:00,78.4,74.9,30.01,ESE,114,0.0,0.0,89,0.00,,---,0.00,VWS V14.01,2013-07-30 08:42:00,
2013-07-30 04:47:00,78.2,74.7,30.02,ESE,114,0.0,0.0,89,0.00,,---,0.00,VWS V14.01,2013-07-30 08:47:00,
2013-07-30 04:52:00,77.9,74.7,30.02,ESE,114,0.0,0.0,90,0.00,,---,0.00,VWS V14.01,2013-07-30 08:52:00,
2013-07-30 04:57:00,77.8,74.6,30.02,ESE,114,0.0,0.0,90,0.00,,---,0.00,VWS V14.01,2013-07-30 08:57:00,
2013-07-30 05:00:00,77.8,74.6,30.02,ESE,114,0.0,0.0,90,0.00,,---,0.00,VWS V14.01,2013-07-30 09:00:00,
2013-07-30 05:02:00,77.8,74.6,30.02,ESE,114,0.0,0.0,90,0.00,,---,0.00,VWS V14.01,2013-07-30 09:02:00,
2013-07-30 05:07:00,77.8,75.0,30.02,ESE,114,0.0,0.0,91,0.00,,---,0.00,VWS V14.01,2013-07-30 09:07:00,
2013-07-30 05:12:00,77.8,75.0,30.02,ESE,114,0.0,1.0,91,0.00,,---,0.00,VWS V14.01,2013-07-30 09:12:00,
2013-07-30 05:17:00,77.8,75.0,30.03,ESE,114,0.0,1.0,91,0.00,,---,0.00,VWS V14.01,2013-07-30 09:17:00,
2013-07-30 05:22:00,77.8,75.0,30.03,ESE,114,0.0,2.0,91,0.00,,---,0.00,VWS V14.01,2013-07-30 09:22:00,
2013-07-30 05:27:00,77.8,75.0,30.03,SE,146,0.0,2.0,91,0.00,,---,0.00,VWS V14.01,2013-07-30 09:27:00,
2013-07-30 05:30:00,77.8,75.0,30.04,South,182,0.0,2.0,91,0.00,,---,0.00,VWS V14.01,2013-07-30 09:30:00,
2013-07-30 05:32:00,77.9,75.1,30.04,SSW,207,0.0,0.0,91,0.00,,---,0.00,VWS V14.01,2013-07-30 09:32:00,
2013-07-30 05:37:00,77.9,75.1,30.02,South,186,0.0,1.0,91,0.00,,---,0.00,VWS V14.01,2013-07-30 09:37:00,
2013-07-30 05:42:00,77.9,75.1,30.01,South,174,0.0,1.0,91,0.00,,---,0.00,VWS V14.01,2013-07-30 09:42:00,
2013-07-30 05:47:00,77.9,75.1,30.02,SE,126,0.0,2.0,91,0.00,,---,0.00,VWS V14.01,2013-07-30 09:47:00,
2013-07-30 05:52:00,77.8,75.0,30.02,SE,126,0.0,2.0,91,0.00,,---,0.00,VWS V14.01,2013-07-30 09:52:00,
2013-07-30 05:57:00,77.5,75.0,30.02,SE,126,0.0,2.0,92,0.00,,---,0.00,VWS V14.01,2013-07-30 09:57:00,
2013-07-30 06:00:00,77.5,75.0,30.02,SE,126,0.0,2.0,92,0.00,,---,0.00,VWS V14.01,2013-07-30 10:00:00,
2013-07-30 06:02:00,77.4,74.9,30.02,SE,126,0.0,0.0,92,0.00,,---,0.00,VWS V14.01,2013-07-30 10:02:00,
2013-07-30 06:07:00,77.3,74.8,30.02,SE,126,0.0,0.0,92,0.00,,---,0.00,VWS V14.01,2013-07-30 10:07:00,
2013-07-30 06:12:00,77.1,74.6,30.01,SE,126,0.0,0.0,92,0.00,,---,0.00,VWS V14.01,2013-07-30 10:12:00,
2013-07-30 06:17:00,76.9,74.4,30.01,SE,126,0.0,1.0,92,0.00,,---,0.00,VWS V14.01,2013-07-30 10:17:00,
2013-07-30 06:22:00,76.7,74.2,30.01,SE,126,0.0,1.0,92,0.00,,---,0.00,VWS V14.01,2013-07-30 10:22:00,
2013-07-30 06:27:00,76.6,74.4,30.01,SE,126,0.0,1.0,93,0.00,,---,0.00,VWS V14.01,2013-07-30 10:27:00,
2013-07-30 06:30:00,76.6,74.4,30.01,SE,126,0.0,1.0,93,0.00,,---,0.00,VWS V14.01,2013-07-30 10:30:00,
2013-07-30 06:32:00,76.5,74.3,30.01,SE,126,0.0,0.0,93,0.00,,---,0.00,VWS V14.01,2013-07-30 10:32:00,
2013-07-30 06:37:00,76.4,74.2,30.02,SE,126,0.0,0.0,93,0.00,,---,0.00,VWS V14.01,2013-07-30 10:37:00,
2013-07-30 06:42:00,76.3,74.1,30.02,SE,126,0.0,1.0,93,0.00,,---,0.00,VWS V14.01,2013-07-30 10:42:00,
2013-07-30 06:47:00,76.2,74.0,30.02,SE,126,0.0,1.0,93,0.00,,---,0.00,VWS V14.01,2013-07-30 10:47:00,
2013-07-30 06:52:00,76.1,73.9,30.02,SE,126,0.0,1.0,93,0.00,,---,0.00,VWS V14.01,2013-07-30 10:52:00,
2013-07-30 06:57:00,76.0,73.8,30.02,SE,126,0.0,1.0,93,0.00,,---,0.00,VWS V14.01,2013-07-30 10:57:00,
2013-07-30 07:00:00,75.9,74.1,30.02,SE,126,0.0,1.0,94,0.00,,---,0.00,VWS V14.01,2013-07-30 11:00:00,
2013-07-30 07:02:00,75.8,73.9,30.02,SE,126,0.0,0.0,94,0.00,,---,0.00,VWS V14.01,2013-07-30 11:02:00,
2013-07-30 07:07:00,75.8,73.9,30.02,SE,126,0.0,0.0,94,0.00,,---,0.00,VWS V14.01,2013-07-30 11:07:00,
2013-07-30 07:12:00,75.7,73.8,30.03,SE,126,0.0,0.0,94,0.00,,---,0.00,VWS V14.01,2013-07-30 11:12:00,
2013-07-30 07:17:00,75.8,74.3,30.03,SE,126,0.0,0.0,95,0.00,,---,0.00,VWS V14.01,2013-07-30 11:17:00,
2013-07-30 07:22:00,75.9,74.4,30.03,SE,126,0.0,0.0,95,0.00,,---,0.00,VWS V14.01,2013-07-30 11:22:00,
2013-07-30 07:27:00,75.9,74.4,30.04,SE,126,0.0,0.0,95,0.00,,---,0.00,VWS V14.01,2013-07-30 11:27:00,
2013-07-30 07:30:00,75.9,74.4,30.04,SE,126,0.0,0.0,95,0.00,,---,0.00,VWS V14.01,2013-07-30 11:30:00,
2013-07-30 07:32:00,76.0,74.5,30.04,SE,126,0.0,0.0,95,0.00,,---,0.00,VWS V14.01,2013-07-30 11:32:00,
2013-07-30 07:37:00,76.0,74.5,30.04,SE,126,0.0,0.0,95,0.00,,---,0.00,VWS V14.01,2013-07-30 11:37:00,
2013-07-30 07:42:00,76.0,74.5,30.04,SE,126,0.0,0.0,95,0.00,,---,0.00,VWS V14.01,2013-07-30 11:42:00,
2013-07-30 07:47:00,76.2,74.7,30.04,SE,126,0.0,0.0,95,0.00,,---,0.00,VWS V14.01,2013-07-30 11:47:00,
2013-07-30 07:52:00,76.5,75.0,30.04,SE,126,0.0,0.0,95,0.00,,---,0.00,VWS V14.01,2013-07-30 11:52:00,
2013-07-30 07:57:00,76.7,75.2,30.04,SE,126,0.0,0.0,95,0.00,,---,0.00,VWS V14.01,2013-07-30 11:57:00,
2013-07-30 08:00:00,76.8,75.3,30.04,SE,126,0.0,0.0,95,0.00,,---,0.00,VWS V14.01,2013-07-30 12:00:00,
2013-07-30 08:02:00,76.9,75.4,30.04,SE,126,0.0,0.0,95,0.00,,---,0.00,VWS V14.01,2013-07-30 12:02:00,
2013-07-30 08:07:00,77.1,75.6,30.04,SE,126,0.0,0.0,95,0.00,,---,0.00,VWS V14.01,2013-07-30 12:07:00,
2013-07-30 08:12:00,77.5,76.0,30.04,SE,126,0.0,0.0,95,0.00,,---,0.00,VWS V14.01,2013-07-30 12:12:00,
2013-07-30 08:17:00,78.1,76.6,30.05,SE,126,0.0,1.0,95,0.00,,---,0.00,VWS V14.01,2013-07-30 12:17:00,
2013-07-30 08:22:00,78.9,76.7,30.05,SE,126,0.0,1.0,93,0.00,,---,0.00,VWS V14.01,2013-07-30 12:22:00,
2013-07-30 08:27:00,79.9,77.4,30.05,SE,126,0.0,1.0,92,0.00,,---,0.00,VWS V14.01,2013-07-30 12:27:00,
2013-07-30 08:30:00,80.2,77.3,30.05,SE,126,0.0,1.0,91,0.00,,---,0.00,VWS V14.01,2013-07-30 12:30:00,
2013-07-30 08:32:00,80.8,77.3,30.05,ESE,112,0.0,2.0,89,0.00,,---,0.00,VWS V14.01,2013-07-30 12:32:00,
2013-07-30 08:37:00,81.5,77.3,30.06,ESE,112,0.0,2.0,87,0.00,,---,0.00,VWS V14.01,2013-07-30 12:37:00,
2013-07-30 08:42:00,81.9,77.7,30.06,ESE,112,0.0,2.0,87,0.00,,---,0.00,VWS V14.01,2013-07-30 12:42:00,
2013-07-30 08:47:00,82.5,77.9,30.06,ESE,112,0.0,2.0,86,0.00,,---,0.00,VWS V14.01,2013-07-30 12:47:00,
2013-07-30 08:52:00,83.1,78.5,30.06,ESE,112,0.0,2.0,86,0.00,,---,0.00,VWS V14.01,2013-07-30 12:52:00,
2013-07-30 08:57:00,83.4,78.1,30.07,ESE,112,0.0,2.0,84,0.00,,---,0.00,VWS V14.01,2013-07-30 12:57:00,
2013-07-30 09:00:00,83.3,78.0,30.07,ESE,112,0.0,2.0,84,0.00,,---,0.00,VWS V14.01,2013-07-30 13:00:00,
2013-07-30 09:02:00,83.1,78.1,30.07,ESE,112,0.0,0.0,85,0.00,,---,0.00,VWS V14.01,2013-07-30 13:02:00,
2013-07-30 09:07:00,82.7,77.7,30.06,ESE,112,0.0,1.0,85,0.00,,---,0.00,VWS V14.01,2013-07-30 13:07:00,
2013-07-30 09:12:00,82.4,77.8,30.06,ESE,112,0.0,1.0,86,0.00,,---,0.00,VWS V14.01,2013-07-30 13:12:00,
2013-07-30 09:17:00,82.4,78.1,30.07,ESE,112,0.0,1.0,87,0.00,,---,0.00,VWS V14.01,2013-07-30 13:17:00,
2013-07-30 09:22:00,82.1,77.8,30.07,ESE,112,0.0,1.0,87,0.00,,---,0.00,VWS V14.01,2013-07-30 13:22:00,
2013-07-30 09:27:00,82.0,78.1,30.07,ESE,112,0.0,1.0,88,0.00,,---,0.00,VWS V14.01,2013-07-30 13:27:00,
2013-07-30 09:30:00,82.0,77.8,30.07,East,94,2.0,5.0,87,0.00,,---,0.00,VWS V14.01,2013-07-30 13:30:00,
2013-07-30 09:32:00,81.7,76.0,30.07,SE,130,0.0,5.0,83,0.00,,---,0.00,VWS V14.01,2013-07-30 13:32:00,
2013-07-30 09:37:00,81.5,76.2,30.08,ESE,109,0.0,5.0,84,0.00,,---,0.00,VWS V14.01,2013-07-30 13:37:00,
2013-07-30 09:42:00,81.1,76.2,30.07,ESE,107,1.0,5.0,85,0.01,,---,0.01,VWS V14.01,2013-07-30 13:42:00,
2013-07-30 09:47:00,80.5,77.0,30.08,NE,56,0.0,5.0,89,0.04,,---,0.04,VWS V14.01,2013-07-30 13:47:00,
2013-07-30 09:52:00,80.1,77.2,30.08,NE,34,2.0,5.0,91,0.05,,---,0.05,VWS V14.01,2013-07-30 13:52:00,
2013-07-30 09:57:00,79.8,77.3,30.07,NE,34,1.0,5.0,92,0.06,,---,0.06,VWS V14.01,2013-07-30 13:57:00,
2013-07-30 10:00:00,79.6,76.8,30.07,NE,34,0.0,5.0,91,0.06,,---,0.06,VWS V14.01,2013-07-30 14:00:00,
2013-07-30 10:02:00,79.3,76.4,30.08,NE,34,1.0,2.0,91,0.06,,---,0.06,VWS V14.01,2013-07-30 14:02:00,
2013-07-30 10:07:00,79.0,76.2,30.08,NE,34,0.0,2.0,91,0.06,,---,0.06,VWS V14.01,2013-07-30 14:07:00,
2013-07-30 10:12:00,78.9,76.4,30.07,NE,34,0.0,2.0,92,0.06,,---,0.06,VWS V14.01,2013-07-30 14:12:00,
2013-07-30 10:17:00,79.4,77.2,30.07,NE,34,0.0,2.0,93,0.06,,---,0.06,VWS V14.01,2013-07-30 14:17:00,
2013-07-30 10:22:00,80.5,78.3,30.08,North,5,1.0,2.0,93,0.06,,---,0.06,VWS V14.01,2013-07-30 14:22:00,
2013-07-30 10:27:00,82.1,79.6,30.08,NNE,19,1.0,4.0,92,0.06,,---,0.06,VWS V14.01,2013-07-30 14:27:00,
2013-07-30 10:30:00,82.6,79.4,30.08,North,11,0.0,4.0,90,0.06,,---,0.06,VWS V14.01,2013-07-30 14:30:00,
2013-07-30 10:32:00,83.0,78.4,30.08,NNW,327,2.0,3.0,86,0.06,,---,0.06,VWS V14.01,2013-07-30 14:32:00,
2013-07-30 10:37:00,83.3,78.7,30.08,NNW,327,0.0,3.0,86,0.06,,---,0.06,VWS V14.01,2013-07-30 14:37:00,
2013-07-30 10:42:00,83.5,78.9,30.08,NNW,327,0.0,3.0,86,0.06,,---,0.06,VWS V14.01,2013-07-30 14:42:00,
2013-07-30 10:47:00,83.4,78.1,30.08,NNW,339,1.0,3.0,84,0.06,,---,0.06,VWS V14.01,2013-07-30 14:47:00,
2013-07-30 10:52:00,83.5,78.9,30.08,ENE,71,2.0,3.0,86,0.06,,---,0.06,VWS V14.01,2013-07-30 14:52:00,
2013-07-30 10:57:00,83.7,78.7,30.08,NW,326,2.0,3.0,85,0.06,,---,0.06,VWS V14.01,2013-07-30 14:57:00,
2013-07-30 11:00:00,83.4,77.7,30.08,NW,326,3.0,3.0,83,0.06,,---,0.06,VWS V14.01,2013-07-30 15:00:00,
2013-07-30 11:02:00,83.1,77.4,30.08,NW,322,1.0,4.0,83,0.00,,---,0.06,VWS V14.01,2013-07-30 15:02:00,
2013-07-30 11:07:00,83.2,78.2,30.08,NNW,330,0.0,4.0,85,0.00,,---,0.06,VWS V14.01,2013-07-30 15:07:00,
2013-07-30 11:12:00,83.4,78.1,30.08,SSW,204,1.0,4.0,84,0.00,,---,0.06,VWS V14.01,2013-07-30 15:12:00,
2013-07-30 11:17:00,83.6,78.3,30.08,West,269,1.0,4.0,84,0.00,,---,0.06,VWS V14.01,2013-07-30 15:17:00,
2013-07-30 11:22:00,84.3,79.3,30.08,SE,144,1.0,4.0,85,0.00,,---,0.06,VWS V14.01,2013-07-30 15:22:00,
2013-07-30 11:27:00,84.8,78.3,30.08,SE,132,1.0,4.0,81,0.00,,---,0.06,VWS V14.01,2013-07-30 15:27:00,
2013-07-30 11:30:00,85.1,79.4,30.07,SE,132,0.0,4.0,83,0.00,,---,0.06,VWS V14.01,2013-07-30 15:30:00,
2013-07-30 11:32:00,85.6,79.1,30.07,South,172,0.0,2.0,81,0.00,,---,0.06,VWS V14.01,2013-07-30 15:32:00,
2013-07-30 11:37:00,86.5,79.6,30.08,East,94,2.0,6.0,80,0.00,,---,0.06,VWS V14.01,2013-07-30 15:37:00,
2013-07-30 11:42:00,87.3,80.4,30.08,NNE,22,4.0,7.0,80,0.00,,---,0.06,VWS V14.01,2013-07-30 15:42:00,
2013-07-30 11:47:00,88.0,79.1,30.08,ENE,61,3.0,7.0,75,0.00,,---,0.06,VWS V14.01,2013-07-30 15:47:00,
2013-07-30 11:52:00,87.9,79.0,30.08,SE,130,4.0,7.0,75,0.00,,---,0.06,VWS V14.01,2013-07-30 15:52:00,
2013-07-30 11:57:00,87.9,79.4,30.07,ENE,72,1.0,7.0,76,0.00,,---,0.06,VWS V14.01,2013-07-30 15:57:00,
2013-07-30 12:00:00,87.7,78.4,30.07,SE,128,4.0,7.0,74,0.00,,---,0.06,VWS V14.01,2013-07-30 16:00:00,
2013-07-30 12:02:00,87.5,79.0,30.07,ENE,76,1.0,7.0,76,0.00,,---,0.06,VWS V14.01,2013-07-30 16:02:00,
2013-07-30 12:07:00,87.7,80.0,30.07,ESE,116,3.0,7.0,78,0.00,,---,0.06,VWS V14.01,2013-07-30 16:07:00,
2013-07-30 12:12:00,87.9,79.0,30.06,SE,133,1.0,7.0,75,0.00,,---,0.06,VWS V14.01,2013-07-30 16:12:00,
2013-07-30 12:17:00,87.7,79.2,30.06,East,91,1.0,7.0,76,0.00,,---,0.06,VWS V14.01,2013-07-30 16:17:00,
2013-07-30 12:22:00,87.5,78.6,30.06,SE,137,3.0,7.0,75,0.00,,---,0.06,VWS V14.01,2013-07-30 16:22:00,
2013-07-30 12:27:00,87.7,78.8,30.06,NNE,20,2.0,7.0,75,0.00,,---,0.06,VWS V14.01,2013-07-30 16:27:00,
2013-07-30 12:30:00,88.0,78.7,30.06,SE,139,3.0,7.0,74,0.00,,---,0.06,VWS V14.01,2013-07-30 16:30:00,
2013-07-30 12:32:00,88.3,78.6,30.07,SE,134,3.0,5.0,73,0.00,,---,0.06,VWS V14.01,2013-07-30 16:32:00,
2013-07-30 12:37:00,88.4,79.1,30.06,NE,38,1.0,7.0,74,0.00,,---,0.06,VWS V14.01,2013-07-30 16:37:00,
2013-07-30 12:42:00,88.6,79.2,30.07,SE,135,2.0,7.0,74,0.00,,---,0.06,VWS V14.01,2013-07-30 16:42:00,
2013-07-30 12:47:00,88.7,78.1,30.06,SE,132,3.0,7.0,71,0.00,,---,0.06,VWS V14.01,2013-07-30 16:47:00,
2013-07-30 12:52:00,88.4,79.5,30.07,SE,134,7.0,8.0,75,0.00,,---,0.06,VWS V14.01,2013-07-30 16:52:00,
2013-07-30 12:57:00,88.6,78.4,30.06,NE,49,2.0,8.0,72,0.00,,---,0.06,VWS V14.01,2013-07-30 16:57:00,
2013-07-30 13:00:00,88.7,78.9,30.07,East,96,5.0,8.0,73,0.00,,---,0.06,VWS V14.01,2013-07-30 17:00:00,
2013-07-30 13:02:00,88.7,78.1,30.06,East,100,1.0,10.0,71,0.00,,---,0.06,VWS V14.01,2013-07-30 17:02:00,
2013-07-30 13:07:00,88.7,78.5,30.06,SE,126,5.0,10.0,72,0.00,,---,0.06,VWS V14.01,2013-07-30 17:07:00,
2013-07-30 13:12:00,88.7,78.9,30.06,SE,144,6.0,10.0,73,0.00,,---,0.06,VWS V14.01,2013-07-30 17:12:00,
2013-07-30 13:17:00,88.6,78.4,30.06,NE,55,4.0,10.0,72,0.00,,---,0.06,VWS V14.01,2013-07-30 17:17:00,
2013-07-30 13:22:00,88.3,79.4,30.06,NE,48,4.0,10.0,75,0.00,,---,0.06,VWS V14.01,2013-07-30 17:22:00,
2013-07-30 13:27:00,88.3,78.6,30.06,ESE,116,5.0,10.0,73,0.00,,---,0.06,VWS V14.01,2013-07-30 17:27:00,
2013-07-30 13:30:00,88.3,79.0,30.06,East,101,1.0,10.0,74,0.00,,---,0.06,VWS V14.01,2013-07-30 17:30:00,
2013-07-30 13:32:00,88.2,78.4,30.06,East,82,2.0,8.0,73,0.00,,---,0.06,VWS V14.01,2013-07-30 17:32:00,
2013-07-30 13:37:00,88.1,78.8,30.06,NE,45,3.0,8.0,74,0.00,,---,0.06,VWS V14.01,2013-07-30 17:37:00,
2013-07-30 13:42:00,87.9,77.8,30.06,SSE,161,5.0,8.0,72,0.00,,---,0.06,VWS V14.01,2013-07-30 17:42:00,
2013-07-30 13:47:00,88.2,77.6,30.06,ENE,57,2.0,8.0,71,0.00,,---,0.06,VWS V14.01,2013-07-30 17:47:00,
2013-07-30 13:52:00,88.7,77.7,30.06,South,169,4.0,8.0,70,0.00,,---,0.06,VWS V14.01,2013-07-30 17:52:00,
2013-07-30 13:57:00,88.5,77.9,30.05,NE,52,1.0,8.0,71,0.00,,---,0.06,VWS V14.01,2013-07-30 17:57:00,
2013-07-30 14:00:00,88.6,78.8,30.05,East,89,1.0,8.0,73,0.00,,---,0.06,VWS V14.01,2013-07-30 18:00:00,
2013-07-30 14:02:00,89.0,78.8,30.05,ESE,121,2.0,4.0,72,0.00,,---,0.06,VWS V14.01,2013-07-30 18:02:00,
2013-07-30 14:07:00,89.4,78.8,30.05,SSE,161,1.0,7.0,71,0.00,,---,0.06,VWS V14.01,2013-07-30 18:07:00,
2013-07-30 14:12:00,89.5,78.4,30.05,ENE,67,4.0,7.0,70,0.00,,---,0.06,VWS V14.01,2013-07-30 18:12:00,
2013-07-30 14:17:00,89.6,78.5,30.06,SE,138,1.0,8.0,70,0.00,,---,0.06,VWS V14.01,2013-07-30 18:17:00,
2013-07-30 14:22:00,89.2,78.1,30.05,East,94,0.0,9.0,70,0.00,,---,0.06,VWS V14.01,2013-07-30 18:22:00,
2013-07-30 14:27:00,89.0,77.5,30.05,SSE,159,2.0,11.0,69,0.00,,---,0.06,VWS V14.01,2013-07-30 18:27:00,
2013-07-30 14:30:00,89.1,78.0,30.05,SE,141,5.0,11.0,70,0.00,,---,0.06,VWS V14.01,2013-07-30 18:30:00,
2013-07-30 14:32:00,89.3,78.7,30.05,SSE,151,4.0,8.0,71,0.00,,---,0.06,VWS V14.01,2013-07-30 18:32:00,
2013-07-30 14:37:00,89.4,78.3,30.05,South,180,2.0,8.0,70,0.00,,---,0.06,VWS V14.01,2013-07-30 18:37:00,
2013-07-30 14:42:00,89.2,78.6,30.05,ENE,62,4.0,8.0,71,0.00,,---,0.06,VWS V14.01,2013-07-30 18:42:00,
2013-07-30 14:47:00,88.7,78.5,30.05,ENE,71,1.0,8.0,72,0.00,,---,0.06,VWS V14.01,2013-07-30 18:47:00,
2013-07-30 14:52:00,88.3,77.3,30.05,East,89,3.0,8.0,70,0.00,,---,0.06,VWS V14.01,2013-07-30 18:52:00,
2013-07-30 14:57:00,88.9,79.1,30.05,ENE,60,3.0,8.0,73,0.00,,---,0.06,VWS V14.01,2013-07-30 18:57:00,
2013-07-30 15:00:00,89.1,78.9,30.05,ESE,122,2.0,8.0,72,0.00,,---,0.06,VWS V14.01,2013-07-30 19:00:00,
2013-07-30 15:02:00,89.2,78.1,30.04,ENE,70,2.0,7.0,70,0.00,,---,0.06,VWS V14.01,2013-07-30 19:02:00,
2013-07-30 15:07:00,89.0,78.4,30.04,East,87,2.0,7.0,71,0.00,,---,0.06,VWS V14.01,2013-07-30 19:07:00,
2013-07-30 15:12:00,88.6,78.0,30.04,ESE,111,3.0,10.0,71,0.00,,---,0.06,VWS V14.01,2013-07-30 19:12:00,
2013-07-30 15:17:00,88.7,78.5,30.04,SE,136,3.0,10.0,72,0.00,,---,0.06,VWS V14.01,2013-07-30 19:17:00,
2013-07-30 15:22:00,89.3,78.7,30.04,SSE,147,5.0,10.0,71,0.00,,---,0.06,VWS V14.01,2013-07-30 19:22:00,
2013-07-30 15:27:00,89.1,78.0,30.04,SE,143,5.0,10.0,70,0.00,,---,0.06,VWS V14.01,2013-07-30 19:27:00,
2013-07-30 15:30:00,89.1,78.0,30.04,SE,144,1.0,10.0,70,0.00,,---,0.06,VWS V14.01,2013-07-30 19:30:00,
2013-07-30 15:32:00,89.1,78.9,30.03,SE,127,4.0,6.0,72,0.00,,---,0.06,VWS V14.01,2013-07-30 19:32:00,
2013-07-30 15:37:00,89.1,78.0,30.03,ENE,57,5.0,7.0,70,0.00,,---,0.06,VWS V14.01,2013-07-30 19:37:00,
2013-07-30 15:42:00,89.4,78.3,30.03,East,92,3.0,9.0,70,0.00,,---,0.06,VWS V14.01,2013-07-30 19:42:00,
2013-07-30 15:47:00,89.3,77.8,30.02,ENE,57,7.0,9.0,69,0.00,,---,0.06,VWS V14.01,2013-07-30 19:47:00,
2013-07-30 15:52:00,88.9,77.8,30.02,ESE,102,2.0,9.0,70,0.00,,---,0.06,VWS V14.01,2013-07-30 19:52:00,
2013-07-30 15:57:00,88.8,78.2,30.02,ENE,60,2.0,9.0,71,0.00,,---,0.06,VWS V14.01,2013-07-30 19:57:00,
2013-07-30 16:00:00,88.8,78.2,30.02,East,92,2.0,9.0,71,0.00,,---,0.06,VWS V14.01,2013-07-30 20:00:00,
2013-07-30 16:02:00,89.0,77.9,30.02,East,82,2.0,9.0,70,0.00,,---,0.06,VWS V14.01,2013-07-30 20:02:00,
2013-07-30 16:07:00,89.1,78.5,30.02,NE,38,2.0,9.0,71,0.00,,---,0.06,VWS V14.01,2013-07-30 20:07:00,
2013-07-30 16:12:00,88.8,78.2,30.02,SE,129,3.0,9.0,71,0.00,,---,0.06,VWS V14.01,2013-07-30 20:12:00,
2013-07-30 16:17:00,88.2,78.0,30.01,ENE,78,1.0,9.0,72,0.00,,---,0.06,VWS V14.01,2013-07-30 20:17:00,
2013-07-30 16:22:00,88.3,78.1,30.01,ESE,111,3.0,9.0,72,0.00,,---,0.06,VWS V14.01,2013-07-30 20:22:00,
2013-07-30 16:27:00,88.5,77.5,30.01,SE,138,3.0,9.0,70,0.00,,---,0.06,VWS V14.01,2013-07-30 20:27:00,
2013-07-30 16:30:00,88.6,78.4,30.02,East,83,2.0,9.0,72,0.00,,---,0.06,VWS V14.01,2013-07-30 20:30:00,
2013-07-30 16:32:00,88.4,78.2,30.01,NE,56,1.0,6.0,72,0.00,,---,0.06,VWS V14.01,2013-07-30 20:32:00,
2013-07-30 16:37:00,88.0,77.8,30.01,SE,140,4.0,6.0,72,0.00,,---,0.06,VWS V14.01,2013-07-30 20:37:00,
2013-07-30 16:42:00,87.5,78.6,30.01,South,171,4.0,7.0,75,0.00,,---,0.06,VWS V14.01,2013-07-30 20:42:00,
2013-07-30 16:47:00,87.5,78.6,30.01,ENE,58,3.0,7.0,75,0.00,,---,0.06,VWS V14.01,2013-07-30 20:47:00,
2013-07-30 16:52:00,87.7,78.4,30.01,SE,144,6.0,7.0,74,0.00,,---,0.06,VWS V14.01,2013-07-30 20:52:00,
2013-07-30 16:57:00,87.7,78.0,30.01,ESE,114,2.0,7.0,73,0.00,,---,0.06,VWS V14.01,2013-07-30 20:57:00,
2013-07-30 17:00:00,87.6,77.5,30.01,South,173,2.0,7.0,72,0.00,,---,0.06,VWS V14.01,2013-07-30 21:00:00,
2013-07-30 17:02:00,87.6,77.5,30.01,East,81,6.0,9.0,72,0.00,,---,0.06,VWS V14.01,2013-07-30 21:02:00,
2013-07-30 17:07:00,87.6,77.5,30.01,East,85,5.0,9.0,72,0.00,,---,0.06,VWS V14.01,2013-07-30 21:07:00,
2013-07-30 17:12:00,87.3,77.2,30.01,ENE,69,1.0,9.0,72,0.00,,---,0.06,VWS V14.01,2013-07-30 21:12:00,
2013-07-30 17:17:00,87.0,77.3,30.01,East,90,1.0,9.0,73,0.00,,---,0.06,VWS V14.01,2013-07-30 21:17:00,
2013-07-30 17:22:00,86.6,76.9,30.01,ENE,68,1.0,9.0,73,0.00,,---,0.06,VWS V14.01,2013-07-30 21:22:00,
2013-07-30 17:27:00,86.5,77.2,30.01,SSE,148,2.0,9.0,74,0.00,,---,0.06,VWS V14.01,2013-07-30 21:27:00,
2013-07-30 17:30:00,86.6,77.3,30.01,SSE,161,5.0,9.0,74,0.00,,---,0.06,VWS V14.01,2013-07-30 21:30:00,
2013-07-30 17:32:00,86.7,77.4,30.00,ENE,58,3.0,7.0,74,0.00,,---,0.06,VWS V14.01,2013-07-30 21:32:00,
2013-07-30 17:37:00,86.6,77.3,30.00,ESE,106,4.0,7.0,74,0.00,,---,0.06,VWS V14.01,2013-07-30 21:37:00,
2013-07-30 17:42:00,86.4,77.1,30.00,East,79,2.0,7.0,74,0.00,,---,0.06,VWS V14.01,2013-07-30 21:42:00,
2013-07-30 17:47:00,86.1,77.2,30.00,NE,34,2.0,7.0,75,0.00,,---,0.06,VWS V14.01,2013-07-30 21:47:00,
2013-07-30 17:52:00,86.0,77.2,30.00,ENE,76,2.0,7.0,75,0.00,,---,0.06,VWS V14.01,2013-07-30 21:52:00,
2013-07-30 17:57:00,86.1,76.8,30.00,ENE,69,0.0,7.0,74,0.00,,---,0.06,VWS V14.01,2013-07-30 21:57:00,
2013-07-30 18:00:00,86.1,76.8,30.00,ESE,103,1.0,7.0,74,0.00,,---,0.06,VWS V14.01,2013-07-30 22:00:00,
2013-07-30 18:02:00,86.1,76.8,30.00,ENE,65,1.0,2.0,74,0.00,,---,0.06,VWS V14.01,2013-07-30 22:02:00,
2013-07-30 18:07:00,86.0,77.2,30.00,NE,51,4.0,4.0,75,0.00,,---,0.06,VWS V14.01,2013-07-30 22:07:00,
2013-07-30 18:12:00,86.0,77.6,30.00,ESE,107,0.0,5.0,76,0.00,,---,0.06,VWS V14.01,2013-07-30 22:12:00,
2013-07-30 18:17:00,86.1,77.7,30.00,ENE,71,3.0,5.0,76,0.00,,---,0.06,VWS V14.01,2013-07-30 22:17:00,
2013-07-30 18:22:00,86.0,77.6,30.00,ENE,75,1.0,7.0,76,0.00,,---,0.06,VWS V14.01,2013-07-30 22:22:00,
2013-07-30 18:27:00,85.9,77.9,30.00,ESE,118,2.0,7.0,77,0.00,,---,0.06,VWS V14.01,2013-07-30 22:27:00,
2013-07-30 18:30:00,85.8,77.4,30.00,SE,146,2.0,7.0,76,0.00,,---,0.06,VWS V14.01,2013-07-30 22:30:00,
2013-07-30 18:32:00,85.6,77.6,30.00,East,80,1.0,3.0,77,0.00,,---,0.06,VWS V14.01,2013-07-30 22:32:00,
2013-07-30 18:37:00,85.5,77.1,30.00,NE,44,1.0,7.0,76,0.00,,---,0.06,VWS V14.01,2013-07-30 22:37:00,
2013-07-30 18:42:00,85.5,77.5,30.00,East,94,2.0,7.0,77,0.00,,---,0.06,VWS V14.01,2013-07-30 22:42:00,
2013-07-30 18:47:00,85.3,77.3,30.00,East,95,2.0,7.0,77,0.00,,---,0.06,VWS V14.01,2013-07-30 22:47:00,
2013-07-30 18:52:00,85.1,77.1,30.00,East,79,1.0,7.0,77,0.00,,---,0.06,VWS V14.01,2013-07-30 22:52:00,
2013-07-30 18:57:00,85.0,77.0,30.00,NE,44,0.0,7.0,77,0.00,,---,0.06,VWS V14.01,2013-07-30 22:57:00,
2013-07-30 19:00:00,85.0,77.4,30.00,ENE,76,3.0,7.0,78,0.00,,---,0.06,VWS V14.01,2013-07-30 23:00:00,
2013-07-30 19:02:00,84.9,77.3,30.01,NE,42,1.0,4.0,78,0.00,,---,0.06,VWS V14.01,2013-07-30 23:02:00,
2013-07-30 19:07:00,84.7,77.5,30.01,ESE,113,0.0,5.0,79,0.00,,---,0.06,VWS V14.01,2013-07-30 23:07:00,
2013-07-30 19:13:00,84.6,77.4,30.01,ENE,69,0.0,5.0,79,0.00,,---,0.06,VWS V14.01,2013-07-30 23:13:00,
2013-07-30 19:18:00,84.5,77.7,30.01,SE,139,1.0,6.0,80,0.00,,---,0.06,VWS V14.01,2013-07-30 23:18:00,
2013-07-30 19:22:00,84.4,77.6,30.01,East,86,1.0,6.0,80,0.00,,---,0.06,VWS V14.01,2013-07-30 23:22:00,
2013-07-30 19:27:00,84.3,77.5,30.01,East,87,1.0,6.0,80,0.00,,---,0.06,VWS V14.01,2013-07-30 23:27:00,
2013-07-30 19:30:00,84.2,77.4,30.01,NE,40,2.0,6.0,80,0.00,,---,0.06,VWS V14.01,2013-07-30 23:30:00,
2013-07-30 19:32:00,84.1,77.3,30.01,ENE,76,0.0,4.0,80,0.00,,---,0.06,VWS V14.01,2013-07-30 23:32:00,
2013-07-30 19:38:00,83.9,77.1,30.01,SE,135,0.0,7.0,80,0.00,,---,0.06,VWS V14.01,2013-07-30 23:38:00,
2013-07-30 19:42:00,83.8,77.0,30.01,SE,134,2.0,7.0,80,0.00,,---,0.06,VWS V14.01,2013-07-30 23:42:00,
2013-07-30 19:48:00,83.7,76.9,30.02,SE,127,1.0,7.0,80,0.00,,---,0.06,VWS V14.01,2013-07-30 23:48:00,
2013-07-30 19:53:00,83.6,76.8,30.01,SE,135,1.0,7.0,80,0.00,,---,0.06,VWS V14.01,2013-07-30 23:53:00,
2013-07-30 19:58:00,83.5,76.7,30.02,SE,127,0.0,7.0,80,0.00,,---,0.06,VWS V14.01,2013-07-30 23:58:00,
2013-07-30 20:00:00,83.4,77.0,30.01,SE,127,0.0,7.0,81,0.00,,---,0.06,VWS V14.01,2013-07-31 00:00:00,
2013-07-30 20:03:00,83.3,76.9,30.02,East,96,1.0,2.0,81,0.00,,---,0.06,VWS V14.01,2013-07-31 00:03:00,
2013-07-30 20:08:00,83.2,77.1,30.02,SE,130,1.0,5.0,82,0.00,,---,0.06,VWS V14.01,2013-07-31 00:08:00,
2013-07-30 20:12:00,83.2,77.1,30.02,ENE,75,0.0,5.0,82,0.00,,---,0.06,VWS V14.01,2013-07-31 00:12:00,
2013-07-30 20:17:00,83.1,77.0,30.02,ENE,76,0.0,5.0,82,0.00,,---,0.06,VWS V14.01,2013-07-31 00:17:00,
2013-07-30 20:22:00,83.0,76.9,30.02,SE,139,2.0,5.0,82,0.00,,---,0.06,VWS V14.01,2013-07-31 00:22:00,
2013-07-30 20:27:00,82.9,76.8,30.02,East,82,0.0,5.0,82,0.00,,---,0.06,VWS V14.01,2013-07-31 00:27:00,
2013-07-30 20:30:00,82.9,76.8,30.02,ENE,78,0.0,5.0,82,0.00,,---,0.06,VWS V14.01,2013-07-31 00:30:00,
2013-07-30 20:32:00,82.8,76.8,30.02,ENE,70,2.0,4.0,82,0.00,,---,0.06,VWS V14.01,2013-07-31 00:32:00,
2013-07-30 20:37:00,82.8,76.8,30.02,ESE,120,0.0,4.0,82,0.00,,---,0.06,VWS V14.01,2013-07-31 00:37:00,
2013-07-30 20:42:00,82.7,76.7,30.02,ESE,117,1.0,4.0,82,0.00,,---,0.06,VWS V14.01,2013-07-31 00:42:00,
2013-07-30 20:47:00,82.6,76.6,30.03,SE,134,0.0,4.0,82,0.00,,---,0.06,VWS V14.01,2013-07-31 00:47:00,
2013-07-30 20:52:00,82.6,76.9,30.03,SE,132,0.0,4.0,83,0.00,,---,0.06,VWS V14.01,2013-07-31 00:52:00,
2013-07-30 20:57:00,82.5,76.8,30.03,East,80,0.0,4.0,83,0.00,,---,0.06,VWS V14.01,2013-07-31 00:57:00,
2013-07-30 21:00:00,82.5,76.8,30.03,ESE,111,1.0,4.0,83,0.00,,---,0.06,VWS V14.01,2013-07-31 01:00:00,
2013-07-30 21:02:00,82.5,76.8,30.03,SE,125,0.0,3.0,83,0.00,,---,0.06,VWS V14.01,2013-07-31 01:02:00,
2013-07-30 21:07:00,82.5,76.8,30.04,East,86,0.0,3.0,83,0.00,,---,0.06,VWS V14.01,2013-07-31 01:07:00,
2013-07-30 21:12:00,82.4,76.7,30.04,East,90,0.0,3.0,83,0.00,,---,0.06,VWS V14.01,2013-07-31 01:12:00,
2013-07-30 21:17:00,82.4,76.4,30.04,SE,136,1.0,4.0,82,0.00,,---,0.06,VWS V14.01,2013-07-31 01:17:00,
2013-07-30 21:22:00,82.4,76.7,30.04,ESE,105,0.0,4.0,83,0.00,,---,0.06,VWS V14.01,2013-07-31 01:22:00,
2013-07-30 21:27:00,82.3,76.6,30.04,ENE,78,0.0,4.0,83,0.00,,---,0.06,VWS V14.01,2013-07-31 01:27:00,
2013-07-30 21:30:00,82.3,76.6,30.04,East,84,0.0,4.0,83,0.00,,---,0.06,VWS V14.01,2013-07-31 01:30:00,
2013-07-30 21:32:00,82.3,76.6,30.04,East,86,0.0,2.0,83,0.00,,---,0.06,VWS V14.01,2013-07-31 01:32:00,
2013-07-30 21:37:00,82.3,76.6,30.03,East,81,1.0,2.0,83,0.00,,---,0.06,VWS V14.01,2013-07-31 01:37:00,
2013-07-30 21:42:00,82.2,76.5,30.03,SE,144,1.0,2.0,83,0.00,,---,0.06,VWS V14.01,2013-07-31 01:42:00,
2013-07-30 21:47:00,82.2,76.5,30.03,SE,138,0.0,2.0,83,0.00,,---,0.06,VWS V14.01,2013-07-31 01:47:00,
2013-07-30 21:52:00,82.1,76.4,30.03,SE,138,0.0,2.0,83,0.00,,---,0.06,VWS V14.01,2013-07-31 01:52:00,
2013-07-30 21:57:00,82.0,76.7,30.03,SE,138,0.0,2.0,84,0.00,,---,0.06,VWS V14.01,2013-07-31 01:57:00,
2013-07-30 22:00:00,82.0,76.7,30.03,SE,138,0.0,2.0,84,0.00,,---,0.06,VWS V14.01,2013-07-31 02:00:00,
2013-07-30 22:02:00,81.9,76.6,30.03,ESE,113,0.0,2.0,84,0.00,,---,0.06,VWS V14.01,2013-07-31 02:02:00,
2013-07-30 22:07:00,81.9,76.6,30.03,ESE,113,0.0,2.0,84,0.00,,---,0.06,VWS V14.01,2013-07-31 02:07:00,
2013-07-30 22:12:00,81.9,76.6,30.03,ESE,109,1.0,2.0,84,0.00,,---,0.06,VWS V14.01,2013-07-31 02:12:00,
2013-07-30 22:17:00,81.9,76.6,30.03,ESE,109,0.0,2.0,84,0.00,,---,0.06,VWS V14.01,2013-07-31 02:17:00,
2013-07-30 22:22:00,81.8,76.5,30.04,ESE,109,0.0,2.0,84,0.00,,---,0.06,VWS V14.01,2013-07-31 02:22:00,
2013-07-30 22:27:00,81.8,76.5,30.04,ESE,109,0.0,2.0,84,0.00,,---,0.06,VWS V14.01,2013-07-31 02:27:00,
2013-07-30 22:30:00,81.7,76.8,30.04,ESE,109,0.0,2.0,85,0.00,,---,0.06,VWS V14.01,2013-07-31 02:30:00,
2013-07-30 22:32:00,81.6,76.7,30.03,ESE,109,0.0,0.0,85,0.00,,---,0.06,VWS V14.01,2013-07-31 02:32:00,
2013-07-30 22:37:00,81.5,76.6,30.04,ESE,109,0.0,0.0,85,0.00,,---,0.06,VWS V14.01,2013-07-31 02:37:00,
2013-07-30 22:42:00,81.4,76.8,30.03,ESE,109,0.0,0.0,86,0.00,,---,0.06,VWS V14.01,2013-07-31 02:42:00,
2013-07-30 22:47:00,81.2,76.6,30.03,ESE,109,0.0,0.0,86,0.00,,---,0.06,VWS V14.01,2013-07-31 02:47:00,
2013-07-30 22:52:00,81.1,76.9,30.03,ESE,109,0.0,0.0,87,0.00,,---,0.06,VWS V14.01,2013-07-31 02:52:00,
2013-07-30 22:57:00,80.9,76.7,30.03,ESE,109,0.0,0.0,87,0.00,,---,0.06,VWS V14.01,2013-07-31 02:57:00,
2013-07-30 23:00:00,80.9,76.7,30.03,ESE,109,0.0,0.0,87,0.00,,---,0.06,VWS V14.01,2013-07-31 03:00:00,
2013-07-30 23:02:00,80.8,76.6,30.03,ESE,109,0.0,1.0,87,0.00,,---,0.06,VWS V14.01,2013-07-31 03:02:00,
2013-07-30 23:07:00,80.7,76.8,30.03,ESE,109,0.0,1.0,88,0.00,,---,0.06,VWS V14.01,2013-07-31 03:07:00,
2013-07-30 23:12:00,80.5,76.6,30.03,ESE,109,0.0,1.0,88,0.00,,---,0.06,VWS V14.01,2013-07-31 03:12:00,
2013-07-30 23:17:00,80.4,76.5,30.03,ESE,109,0.0,1.0,88,0.00,,---,0.06,VWS V14.01,2013-07-31 03:17:00,
2013-07-30 23:22:00,80.2,76.7,30.03,ESE,109,0.0,1.0,89,0.00,,---,0.06,VWS V14.01,2013-07-31 03:22:00,
2013-07-30 23:27:00,80.0,76.5,30.03,ESE,109,0.0,1.0,89,0.00,,---,0.06,VWS V14.01,2013-07-31 03:27:00,
2013-07-30 23:30:00,80.0,76.8,30.03,ESE,109,0.0,1.0,90,0.00,,---,0.06,VWS V14.01,2013-07-31 03:30:00,
2013-07-30 23:32:00,79.9,76.7,30.03,ESE,109,0.0,0.0,90,0.00,,---,0.06,VWS V14.01,2013-07-31 03:32:00,
2013-07-30 23:37:00,79.8,76.6,30.03,ESE,109,0.0,0.0,90,0.00,,---,0.06,VWS V14.01,2013-07-31 03:37:00,
2013-07-30 23:42:00,79.7,76.5,30.03,ESE,109,0.0,0.0,90,0.00,,---,0.06,VWS V14.01,2013-07-31 03:42:00,
2013-07-30 23:47:00,79.6,76.8,30.03,ESE,109,0.0,0.0,91,0.00,,---,0.06,VWS V14.01,2013-07-31 03:47:00,
2013-07-30 23:52:00,79.6,76.8,30.03,ESE,109,0.0,0.0,91,0.00,,---,0.06,VWS V14.01,2013-07-31 03:52:00,
2013-07-30 23:57:00,79.5,76.7,30.03,ESE,109,0.0,0.0,91,0.00,,---,0.06,VWS V14.01,2013-07-31 03:57:00,